{"data":{"norad_id":68203,"epoch":"2026-05-25T03:36:57.971808Z","epoch_age_seconds":57970,"freshness":"FRESH","line1":"1 68203U 26052F   26145.15067097  .00005783  00000+0  34610-3 0  9996","line2":"2 68203  97.5328 220.3599 0011273  32.7761 327.4166 15.11361899 10571","mean_motion":15.11361899,"eccentricity":0.0011273,"inclination_deg":97.5328,"raan_deg":220.3599,"arg_perigee_deg":32.7761,"mean_anomaly_deg":327.4166,"bstar":0.0003461,"rev_number":1057,"period_min":95.278305014357,"perigee_km":524.25582443599,"apogee_km":539.83552229135,"semimajor_km":6910.1826733637,"source":"CELESTRAK","updated_at":"2026-05-25T13:38:07.643510Z"}}